Glendale Luke AFB, AZ

10:18 AM MST on May 27, 2017 (GMT -0700)
Luke Air Force Base

Weather History for KLUF - August, 2013

Change the Weather History Date:

Thursday, August 22, 2013

  Actual Average Record
Temperature  
Mean Temperature 94 °F -  
Max Temperature 101 °F 105 °F 116 °F (1969)
Min Temperature 86 °F 71 °F 57 °F (1980)
Cooling Degree Days 29    
Growing Degree Days 44 (Base 50)    
Moisture  
Dew Point 58 °F    
Average Humidity 32    
Maximum Humidity 45    
Minimum Humidity 22    
Precipitation  
Precipitation 0.00 in - - ()
Sea Level Pressure  
Sea Level Pressure 29.82 in    
Wind  
Wind Speed 5 mph (WNW)    
Max Wind Speed 21 mph    
Max Gust Speed -    
Visibility 10 miles    
Events      
Averages and records for this station are not official NWS values.
T = Trace of Precipitation, MM = Missing Value Source: NWS Daily Summary

Daily Weather History Graph

Daily Weather History Graph

Search for Another Location

Airport or City:

Trip Planner

Search our weather history database for the weather conditions in past years. The results will help you decide how hot, cold, wet, or windy it might be!

Date:

Astronomy

Aug. 22, 2013 Rise Set
Actual Time 5:56 AM MST 7:07 PM MST
Civil Twilight 5:31 AM MST 7:32 PM MST
Nautical Twilight 5:00 AM MST 8:03 PM MST
Astronomical Twilight 4:28 AM MST 8:35 PM MST
Moon 8:03 PM MST (8/22) 7:41 AM MST (8/22)
Length of Visible Light 14h 01m
Length of Day
13h 10m
Waning Gibbous, 96% of the Moon is Illuminated
Aug 22
Waning Gibbous
Aug 28
Last Quarter
Sep 5
New
Sep 12
First Quarter
Sep 19
Full

Hourly Weather History & Observations

Time (MST) Temp. Heat Index Dew Point Humidity Pressure Visibility Wind Dir Wind Speed Gust Speed Precip Events Conditions
12:58 AM 91.6 °F 90.4 °F 57.6 °F 32% 29.83 in 10.0 mi NNW 4.6 mph - N/A   Mostly Cloudy
1:58 AM 89.6 °F 88.9 °F 59.2 °F 36% 29.82 in 10.0 mi North 3.5 mph - N/A   Overcast
2:58 AM 90.1 °F 88.8 °F 57.0 °F 33% 29.82 in 10.0 mi NE 3.5 mph - N/A   Mostly Cloudy
3:58 AM 88.7 °F 87.5 °F 57.7 °F 35% 29.81 in 10.0 mi NNE 3.5 mph - N/A   Mostly Cloudy
4:58 AM 88.7 °F 87.8 °F 58.6 °F 36% 29.81 in 10.0 mi Calm Calm - N/A   Mostly Cloudy
5:58 AM 88.0 °F 87.1 °F 58.8 °F 37% 29.83 in 10.0 mi Calm Calm - N/A   Mostly Cloudy
6:58 AM 88.3 °F 87.3 °F 57.9 °F 36% 29.84 in 10.0 mi WNW 2.3 mph - N/A   Scattered Clouds
7:58 AM 90.5 °F 89.0 °F 56.5 °F 32% 29.86 in 10.0 mi ENE 1.2 mph - N/A   Mostly Cloudy
8:58 AM 91.4 °F 90.1 °F 57.4 °F 32% 29.87 in 10.0 mi Calm Calm - N/A   Mostly Cloudy
9:58 AM 92.3 °F 90.7 °F 56.3 °F 30% 29.88 in 10.0 mi SSE 3.5 mph - N/A   Mostly Cloudy
10:58 AM 93.7 °F 92.6 °F 58.1 °F 30% 29.88 in 10.0 mi West 3.5 mph - N/A   Scattered Clouds
11:58 AM 98.2 °F 97.5 °F 57.4 °F 26% 29.86 in 10.0 mi WNW 4.6 mph - N/A   Mostly Cloudy
12:58 PM 97.7 °F 96.3 °F 56.7 °F 25% 29.83 in 10.0 mi Variable 5.8 mph - N/A   Mostly Cloudy
1:58 PM 100.4 °F 99.3 °F 55.9 °F 23% 29.80 in 10.0 mi NW 9.2 mph - N/A   Partly Cloudy
2:58 PM 101.3 °F 100.1 °F 56.3 °F 22% 29.74 in 10.0 mi West 10.4 mph - N/A   Clear
6:58 PM 99.0 °F 97.7 °F 55.8 °F 24% 29.73 in 10.0 mi SSE 8.1 mph - N/A   Mostly Cloudy
7:58 PM 95.7 °F 94.3 °F 57.0 °F 27% 29.75 in 10.0 mi SW 18.4 mph - N/A   Mostly Cloudy
8:58 PM 92.8 °F 92.4 °F 59.9 °F 33% 29.79 in 10.0 mi WSW 20.7 mph - N/A   Clear
9:58 PM 90.1 °F 90.6 °F 62.4 °F 39% 29.80 in 10.0 mi WSW 10.4 mph - N/A   Clear
10:58 PM 87.1 °F 87.8 °F 63.0 °F 44% 29.82 in 10.0 mi WNW 9.2 mph - N/A   Partly Cloudy
11:58 PM 86.4 °F 87.0 °F 62.4 °F 45% 29.81 in 10.0 mi WNW 6.9 mph - N/A   Clear